[[{"header":{"parameterUnit":"m.s-1","parameterCategory":2,"la1":30.2991,"la2":30.254,"lo1":-89.0895,"lo2":-89.0444,"dy":0.0017,"dx":0.0017,"nx":28,"ny":28,"refTime":"2025-07-02T21:00:00:Z","depth":"0","parameterNumber":2,"parameterNumberName":"U-component_of_CURRENTS"},"data":[0,0,0,0,0,0,0,0,0,0,0,0,0,0,0,0,0,0,0,0,0,0,0,0,0,0,0,0,0,0,0,0,0,0,0,0,0,0,0,0,0,0,0,0,0,0,0,0,0,0,0,0,0,0,0,0,0,0,-0.2364,-0.2364,0,-0.2317,-0.2316,-0.2315,-0.2262,-0.2262,-0.2261,-0.2261,-0.2177,-0.2175,-0.2173,0,0,0,0,0,0,0,0,0,0,0,0,0,-0.2399,-0.2399,-0.2364,-0.2364,-0.2364,-0.2317,-0.2316,-0.2314,-0.2262,-0.2262,-0.2261,-0.2261,-0.2178,-0.2175,-0.2173,0,0,0,0,0,0,0,0,0,0,0,0,0,-0.2367,-0.2399,-0.2364,-0.2335,-0.2333,-0.2317,-0.2316,-0.2314,-0.2262,-0.2262,-0.2261,-0.2261,-0.2178,-0.2176,-0.2173,-0.2166,0,0,-0.2164,-0.2163,0,0,0,0,0,0,0,0,-0.2369,-0.2365,-0.234,-0.2337,-0.2334,-0.2299,-0.2297,-0.2264,-0.2262,-0.2284,-0.2261,-0.226,-0.2218,-0.2212,-0.2198,-0.2162,-0.2158,-0.2164,-0.2162,-0.2161,-0.216,0,0,0,0,0,0,0,-0.2371,-0.2367,-0.2341,-0.234,-0.2336,-0.2322,-0.2316,-0.2291,-0.225,-0.2282,-0.2279,-0.2281,-0.2215,-0.2201,-0.2195,-0.2157,-0.2164,-0.2161,-0.216,-0.2158,-0.2104,-0.2105,0,0,0,0,0,0,-0.2387,-0.2369,-0.2342,-0.234,-0.2356,-0.2322,-0.2315,-0.2307,-0.2251,-0.2244,-0.2282,-0.2279,-0.2206,-0.2199,-0.2192,-0.2172,-0.2161,-0.2158,-0.2157,-0.2104,-0.2105,-0.2105,0,0,0,0,0,0,-0.2388,-0.2385,-0.2344,-0.2358,-0.2352,-0.2322,-0.2313,-0.2306,-0.2293,-0.2252,-0.2243,-0.2277,-0.2205,-0.2196,-0.2171,-0.2168,-0.2157,-0.2154,-0.2104,-0.2104,-0.2105,-0.2136,0,0,0,0,0,0,-0.2389,-0.2385,-0.2377,-0.2358,-0.2352,-0.233,-0.2314,-0.2306,-0.2298,-0.2293,-0.2245,-0.2236,-0.2204,-0.2176,-0.2169,-0.2164,-0.2152,-0.2104,-0.2104,-0.2105,-0.2135,-0.2137,-0.214,0,0,0,0,0,-0.239,-0.2374,-0.2377,-0.2373,-0.2344,-0.233,-0.2324,-0.2299,-0.2298,-0.2286,-0.2262,-0.2238,-0.2174,-0.2174,-0.2165,-0.216,-0.2103,-0.2104,-0.2105,-0.2133,-0.2137,-0.214,0,0,0,0,0,0,-0.2382,-0.2367,-0.2369,-0.2349,-0.2344,-0.2323,-0.2306,-0.2306,-0.2278,-0.2273,-0.224,-0.2229,-0.2207,-0.2184,-0.2185,-0.2147,-0.2135,-0.2134,-0.216,-0.2163,-0.2166,-0.2168,-0.215,0,0,0,0,0,-0.2382,-0.2361,-0.236,-0.2343,-0.2341,-0.2331,-0.2322,-0.2314,-0.2294,-0.2281,-0.2255,-0.2227,-0.2203,-0.2184,-0.2157,-0.2137,-0.2128,-0.2129,-0.2132,-0.2134,-0.2131,-0.2121,-0.2123,-0.2107,-0.2107,-0.2107,0,0,-0.2368,-0.2364,-0.2348,-0.234,-0.2329,-0.2328,-0.2321,-0.2309,-0.2308,-0.2277,-0.2256,-0.2235,-0.2201,-0.2176,-0.2163,-0.2155,-0.2138,-0.2135,-0.2137,-0.2132,-0.2122,-0.2124,-0.2125,-0.2107,-0.2107,-0.2107,0,0,-0.2338,-0.2336,-0.2311,-0.2317,-0.2316,-0.2317,-0.2322,-0.2312,-0.2302,-0.2293,-0.227,-0.225,-0.2215,-0.2186,-0.217,-0.2173,-0.2155,-0.2167,-0.2175,-0.2166,-0.2168,-0.2168,-0.2176,-0.2177,-0.2164,-0.2165,-0.2165,0,-0.2321,-0.2301,-0.2303,-0.23,-0.2304,-0.232,-0.2314,-0.2313,-0.2298,-0.2296,-0.2289,-0.225,-0.2219,-0.2194,-0.2189,-0.2177,-0.2177,-0.2165,-0.217,-0.2171,-0.2171,-0.2178,-0.2179,-0.2166,-0.2166,-0.2166,-0.2166,0,-0.2277,-0.2275,-0.2265,-0.2269,-0.228,-0.2272,-0.2295,-0.23,-0.2307,-0.2309,-0.2294,-0.226,-0.2236,-0.2225,-0.2203,-0.219,-0.2192,-0.2178,-0.2163,-0.2174,-0.2181,-0.2182,-0.2168,-0.2168,-0.2167,-0.2167,0,0,-0.2176,-0.2222,-0.2216,-0.2226,-0.2263,-0.2261,-0.2287,-0.2298,-0.2311,-0.2305,-0.2309,-0.2269,-0.2264,-0.2245,-0.222,-0.2206,-0.2208,-0.2192,-0.2191,-0.2201,-0.2205,-0.2214,-0.2216,-0.2198,-0.2198,-0.2198,-0.2214,0,-0.2128,-0.2125,-0.2169,-0.2172,-0.2168,-0.2227,-0.2252,-0.2279,-0.2299,-0.2311,-0.2299,-0.2288,-0.227,-0.2255,-0.2243,-0.2217,-0.2208,-0.2206,-0.219,-0.2189,-0.2198,-0.2216,-0.2226,-0.2242,-0.2215,-0.2215,-0.2215,0,-0.2044,-0.2062,-0.2059,-0.2127,-0.2132,-0.2151,-0.2198,-0.2225,-0.2273,-0.2293,-0.2304,-0.2307,-0.2293,-0.2272,-0.2249,-0.2251,-0.2228,-0.221,-0.221,-0.2205,-0.2199,-0.2222,-0.2243,-0.2203,-0.2215,-0.2215,-0.2215,0,-0.1929,-0.1976,-0.1973,-0.199,-0.2071,-0.2089,-0.2135,-0.22,-0.2228,-0.2276,-0.2303,-0.2307,-0.2304,-0.2283,-0.2262,-0.2254,-0.2241,-0.2227,-0.2218,-0.2219,-0.2216,-0.2217,-0.2195,-0.2204,-0.2204,-0.2204,-0.2204,0,-0.1836,-0.1831,-0.1918,-0.191,-0.1926,-0.2011,-0.2036,-0.2097,-0.2173,-0.2216,-0.2272,-0.2306,-0.2305,-0.2309,-0.2278,-0.2261,-0.2258,-0.2224,-0.2222,-0.2229,-0.2231,-0.2186,-0.2121,-0.2205,-0.2205,-0.2205,-0.2205,0,-0.1701,-0.1753,-0.1755,-0.1839,-0.1864,-0.187,-0.1981,-0.2007,-0.2102,-0.2162,-0.218,-0.2291,-0.2327,-0.2325,-0.2305,-0.2284,-0.2216,-0.2246,-0.2267,-0.2266,-0.2225,-0.2161,-0.2077,-0.2025,-0.225,-0.225,-0.2251,0,-0.1632,-0.1615,-0.1683,-0.1696,-0.1732,-0.1772,-0.1812,-0.1935,-0.1986,-0.2157,-0.2181,-0.2267,-0.2357,-0.2364,-0.2361,-0.2344,-0.2222,-0.2282,-0.226,-0.2228,-0.2155,-0.2092,-0.2049,-0.2277,-0.2277,-0.2278,-0.2278,0,-0.1514,-0.1536,-0.1557,-0.1582,-0.1612,-0.1661,-0.1738,-0.178,-0.1944,-0.2047,-0.2211,-0.2313,-0.2406,-0.246,-0.2438,-0.239,-0.2218,-0.2289,-0.2244,-0.2163,-0.2102,-0.205,-0.2269,-0.2281,-0.2281,-0.2281,-0.2281,-0.2281,-0.1432,-0.1425,-0.146,-0.1474,-0.1518,-0.157,-0.1582,-0.1723,-0.1843,-0.203,-0.2187,-0.2332,-0.2456,-0.2492,-0.247,-0.2362,-0.2279,-0.2259,-0.2184,-0.2125,-0.2066,-0.2301,-0.2314,-0.2314,-0.2314,-0.2314,-0.2313,0,-0.1333,-0.1347,-0.1361,-0.1397,-0.1415,-0.1464,-0.1544,-0.1576,-0.172,-0.194,-0.2132,-0.2296,-0.2399,-0.2415,-0.2374,-0.2277,-0.2226,-0.215,-0.2063,-0.2023,-0.2242,-0.2237,-0.2247,-0.2247,-0.2247,-0.2248,-0.2248,-0.2248,-0.1282,-0.127,-0.1281,-0.1284,-0.1313,-0.1308,-0.1329,-0.1423,-0.154,-0.1736,-0.1857,-0.2025,-0.2004,-0.2174,-0.2115,-0.2084,-0.1965,-0.1929,-0.1848,-0.2014,-0.2019,-0.2024,-0.2008,-0.197,-0.197,-0.1661,-0.1658,-0.1656]},{"header":{"parameterUnit":"m.s-1","parameterCategory":2,"la1":30.2991,"la2":30.254,"lo1":-89.0895,"lo2":-89.0444,"dy":0.0017,"dx":0.0017,"nx":28,"ny":28,"refTime":"2025-07-02T21:00:00:Z","depth":"0","parameterNumber":3,"parameterNumberName":"V-component_of_CURRENTS"},"data":[0,0,0,0,0,0,0,0,0,0,0,0,0,0,0,0,0,0,0,0,0,0,0,0,0,0,0,0,0,0,0,0,0,0,0,0,0,0,0,0,0,0,0,0,0,0,0,0,0,0,0,0,0,0,0,0,0,0,-0.0383,-0.0383,0,-0.0429,-0.0429,-0.043,-0.0486,-0.0486,-0.0487,-0.0488,-0.0528,-0.0528,-0.0529,0,0,0,0,0,0,0,0,0,0,0,0,0,-0.0314,-0.0315,-0.0383,-0.0383,-0.0383,-0.0429,-0.0429,-0.043,-0.0486,-0.0487,-0.0487,-0.0488,-0.0528,-0.0528,-0.0529,0,0,0,0,0,0,0,0,0,0,0,0,0,-0.0352,-0.0316,-0.0383,-0.0416,-0.0419,-0.0429,-0.0429,-0.043,-0.0485,-0.0487,-0.0488,-0.0489,-0.0528,-0.0528,-0.0529,-0.051,0,0,-0.0531,-0.0531,0,0,0,0,0,0,0,0,-0.0349,-0.0354,-0.041,-0.0413,-0.0417,-0.0451,-0.042,-0.0456,-0.0485,-0.0462,-0.0488,-0.0489,-0.05,-0.0503,-0.0511,-0.0512,-0.0514,-0.0531,-0.0531,-0.0531,-0.0531,0,0,0,0,0,0,0,-0.0347,-0.0352,-0.0402,-0.0411,-0.0415,-0.0418,-0.0425,-0.0427,-0.0475,-0.0464,-0.0468,-0.047,-0.0502,-0.0511,-0.0513,-0.0514,-0.0531,-0.0531,-0.0532,-0.0532,-0.0504,-0.0503,0,0,0,0,0,0,-0.0339,-0.035,-0.0401,-0.0404,-0.0384,-0.0419,-0.0426,-0.044,-0.0475,-0.0481,-0.0469,-0.0473,-0.0509,-0.0512,-0.0514,-0.0503,-0.0531,-0.0532,-0.0532,-0.0505,-0.0503,-0.0502,0,0,0,0,0,0,-0.0337,-0.0343,-0.0399,-0.0376,-0.0383,-0.0419,-0.0434,-0.0441,-0.045,-0.0479,-0.0486,-0.0471,-0.051,-0.0513,-0.0518,-0.0505,-0.0532,-0.0533,-0.0506,-0.0504,-0.0503,-0.0475,0,0,0,0,0,0,-0.0335,-0.0343,-0.0344,-0.0376,-0.0384,-0.0403,-0.0433,-0.0441,-0.0449,-0.0454,-0.0483,-0.0488,-0.0511,-0.0517,-0.0519,-0.0506,-0.0533,-0.0507,-0.0505,-0.0503,-0.0477,-0.0472,-0.0468,0,0,0,0,0,-0.0333,-0.0333,-0.0344,-0.0349,-0.0387,-0.0402,-0.0407,-0.0436,-0.0448,-0.0449,-0.047,-0.0487,-0.0505,-0.0517,-0.0519,-0.0506,-0.0508,-0.0506,-0.0504,-0.0479,-0.0473,-0.0468,0,0,0,0,0,0,-0.0298,-0.0339,-0.0352,-0.0363,-0.0379,-0.0411,-0.0414,-0.0428,-0.0445,-0.045,-0.0478,-0.0484,-0.048,-0.0491,-0.0503,-0.0489,-0.0507,-0.0505,-0.0487,-0.0482,-0.0478,-0.0483,-0.0533,0,0,0,0,0,-0.029,-0.0306,-0.0336,-0.0342,-0.0351,-0.0378,-0.0385,-0.0405,-0.0425,-0.0434,-0.0452,-0.0465,-0.047,-0.0476,-0.0482,-0.0475,-0.0469,-0.0465,-0.0461,-0.0457,-0.0461,-0.0442,-0.0437,-0.0494,-0.0494,-0.0494,0,0,-0.0276,-0.03,-0.0307,-0.0335,-0.0353,-0.0368,-0.0386,-0.0397,-0.0407,-0.0433,-0.0445,-0.0449,-0.0463,-0.0461,-0.0459,-0.0471,-0.0431,-0.0454,-0.0451,-0.0457,-0.0439,-0.0434,-0.0429,-0.0493,-0.0493,-0.0493,0,0,-0.0264,-0.0279,-0.0294,-0.0306,-0.033,-0.0349,-0.0349,-0.0376,-0.0387,-0.0393,-0.0411,-0.0406,-0.042,-0.0426,-0.0431,-0.0401,-0.0406,-0.0399,-0.0387,-0.0368,-0.0364,-0.036,-0.032,-0.0313,-0.04,-0.04,-0.04,0,-0.0246,-0.0278,-0.0295,-0.031,-0.0323,-0.034,-0.0356,-0.0362,-0.0385,-0.0389,-0.0395,-0.0398,-0.0403,-0.04,-0.0392,-0.0391,-0.0379,-0.0409,-0.0363,-0.036,-0.0356,-0.0317,-0.0309,-0.0398,-0.0399,-0.0399,-0.0399,0,-0.0254,-0.0274,-0.0279,-0.0315,-0.0321,-0.0335,-0.035,-0.0353,-0.0363,-0.0372,-0.0364,-0.0364,-0.0371,-0.036,-0.0372,-0.0346,-0.0342,-0.0358,-0.038,-0.0349,-0.0309,-0.0301,-0.0396,-0.0397,-0.0397,-0.0398,0,0,-0.0238,-0.0283,-0.0286,-0.0312,-0.033,-0.0345,-0.0344,-0.0361,-0.0369,-0.0361,-0.0362,-0.0349,-0.0344,-0.0348,-0.0345,-0.0326,-0.0275,-0.0333,-0.0333,-0.0298,-0.0218,-0.0203,-0.0194,-0.0289,-0.0288,-0.0287,-0.0191,0,-0.0249,-0.0295,-0.0302,-0.0335,-0.0365,-0.0367,-0.0371,-0.0376,-0.0375,-0.0373,-0.0351,-0.035,-0.0341,-0.034,-0.0315,-0.0293,-0.0259,-0.0299,-0.0249,-0.0247,-0.0243,-0.0186,-0.0131,-0.004,-0.0184,-0.0183,-0.0182,0,-0.0261,-0.0299,-0.0341,-0.038,-0.039,-0.0398,-0.0416,-0.042,-0.0404,-0.0399,-0.0376,-0.0362,-0.0323,-0.0323,-0.0252,-0.0281,-0.0245,-0.022,-0.0216,-0.0213,-0.022,-0.0099,-0.0022,0.0182,-0.0171,-0.0172,-0.0172,0,-0.0276,-0.0322,-0.0367,-0.0378,-0.0417,-0.0424,-0.0435,-0.0429,-0.0442,-0.0409,-0.041,-0.0358,-0.0338,-0.0285,-0.0221,-0.024,-0.0139,-0.0161,-0.0105,-0.0102,-0.0051,-0.0046,0.0221,-0.0105,-0.0105,-0.0105,-0.0105,0,-0.0295,-0.0327,-0.0382,-0.0406,-0.0454,-0.0453,-0.0483,-0.0478,-0.0471,-0.0493,-0.0427,-0.0425,-0.0332,-0.0268,-0.021,-0.0122,-0.0125,-0.0086,-0.0076,-0.0036,-0.0031,0.0148,0.022,-0.0101,-0.0102,-0.0103,-0.0104,0,-0.0299,-0.0337,-0.0394,-0.0446,-0.0466,-0.0494,-0.0531,-0.0557,-0.053,-0.055,-0.0541,-0.0466,-0.0376,-0.0268,-0.0165,-0.0112,0.0075,0.0001,0.0055,0.0069,0.0286,0.0355,0.0506,0.061,0.0077,0.0078,0.0079,0,-0.0311,-0.0345,-0.0427,-0.0473,-0.0498,-0.0545,-0.0589,-0.0591,-0.0621,-0.0591,-0.061,-0.0506,-0.0461,-0.0265,-0.0111,0.0037,0.0144,0.0156,0.0123,0.0331,0.0417,0.04,0.0476,0.0223,0.0224,0.0226,0.0227,0,-0.0334,-0.0361,-0.0407,-0.0509,-0.057,-0.0647,-0.0702,-0.074,-0.0746,-0.0761,-0.0754,-0.0701,-0.0463,-0.0249,-0.0014,0.0065,0.0303,0.0189,0.0398,0.0554,0.0561,0.0655,0.0142,0.0241,0.024,0.0239,0.0238,0.0237,-0.0349,-0.0385,-0.0459,-0.0546,-0.0633,-0.0745,-0.0811,-0.0879,-0.0946,-0.0981,-0.0887,-0.0776,-0.0356,-0.0015,0.0098,0.0479,0.0407,0.0584,0.0654,0.062,0.0719,0.024,0.0342,0.0341,0.0341,0.034,0.0339,0,-0.0384,-0.0426,-0.0505,-0.0631,-0.0742,-0.0773,-0.0894,-0.0968,-0.1076,-0.1051,-0.1041,-0.0555,-0.0172,0.0237,0.0759,0.0951,0.096,0.1077,0.1122,0.1179,0.0777,0.0787,0.0998,0.0997,0.0997,0.0997,0.0997,0.0997,-0.0409,-0.0482,-0.0521,-0.0707,-0.0796,-0.0952,-0.1023,-0.1127,-0.1131,-0.1038,-0.0787,-0.0561,0.0119,0.0907,0.1399,0.1444,0.165,0.1603,0.171,0.1509,0.1469,0.1432,0.1464,0.1813,0.1814,0.2092,0.2096,0.2098]}],[{"header":{"parameterUnit":"m.s-1","parameterCategory":2,"la1":30.2991,"la2":30.254,"lo1":-89.0895,"lo2":-89.0444,"dy":0.0017,"dx":0.0017,"nx":28,"ny":28,"refTime":"2025-07-02T21:00:00:Z","depth":"2","parameterNumber":2,"parameterNumberName":"U-component_of_CURRENTS"},"data":[0,0,0,0,0,0,0,0,0,0,0,0,0,0,0,0,0,0,0,0,0,0,0,0,0,0,0,0,0,0,0,0,0,0,0,0,0,0,0,0,0,0,0,0,0,0,0,0,0,0,0,0,0,0,0,0,0,0,-0.1746,-0.1746,0,-0.1674,-0.1673,-0.1672,-0.1626,-0.1626,-0.1626,-0.1626,-0.1595,-0.1595,-0.1594,0,0,0,0,0,0,0,0,0,0,0,0,0,-0.1819,-0.1818,-0.1746,-0.1746,-0.1745,-0.1674,-0.1673,-0.1672,-0.1626,-0.1626,-0.1626,-0.1626,-0.1596,-0.1595,-0.1594,0,0,0,0,0,0,0,0,0,0,0,0,0,-0.177,-0.1817,-0.1747,-0.1714,-0.1711,-0.1675,-0.1673,-0.1672,-0.1626,-0.1626,-0.1626,-0.1626,-0.1596,-0.1595,-0.1594,-0.1592,0,0,-0.1591,-0.159,0,0,0,0,0,0,0,0,-0.1773,-0.1767,-0.172,-0.1717,-0.1713,-0.166,-0.1688,-0.1648,-0.1626,-0.1657,-0.1626,-0.1626,-0.1622,-0.1619,-0.1603,-0.1591,-0.1589,-0.1591,-0.159,-0.159,-0.1589,0,0,0,0,0,0,0,-0.1776,-0.177,-0.1716,-0.1719,-0.1715,-0.1695,-0.1688,-0.1679,-0.1641,-0.1654,-0.1651,-0.1645,-0.162,-0.1604,-0.1602,-0.1589,-0.1591,-0.159,-0.1589,-0.1589,-0.1594,-0.1595,0,0,0,0,0,0,-0.1789,-0.1773,-0.1719,-0.1714,-0.1744,-0.1694,-0.1686,-0.1676,-0.164,-0.1635,-0.1646,-0.1644,-0.1606,-0.1604,-0.1601,-0.1642,-0.159,-0.1589,-0.1588,-0.1594,-0.1594,-0.1595,0,0,0,0,0,0,-0.1791,-0.1785,-0.1722,-0.1744,-0.1734,-0.1694,-0.1682,-0.1675,-0.1683,-0.1634,-0.1628,-0.1664,-0.1606,-0.1603,-0.1608,-0.1639,-0.1588,-0.1587,-0.1593,-0.1594,-0.1595,-0.1696,0,0,0,0,0,0,-0.1793,-0.1786,-0.1796,-0.1744,-0.1734,-0.1726,-0.1683,-0.1674,-0.1678,-0.1676,-0.1648,-0.1643,-0.1605,-0.161,-0.1607,-0.1637,-0.1587,-0.1592,-0.1593,-0.1595,-0.1691,-0.17,-0.1707,0,0,0,0,0,-0.1796,-0.1809,-0.1797,-0.1791,-0.1744,-0.1727,-0.1721,-0.1689,-0.168,-0.1694,-0.1667,-0.1645,-0.1616,-0.161,-0.1606,-0.1637,-0.1591,-0.1593,-0.1594,-0.1688,-0.1698,-0.1707,0,0,0,0,0,0,-0.1853,-0.1803,-0.179,-0.1789,-0.1773,-0.1721,-0.1729,-0.1712,-0.17,-0.1705,-0.1658,-0.1652,-0.1664,-0.1637,-0.1631,-0.1639,-0.1599,-0.16,-0.1671,-0.1681,-0.1689,-0.1681,-0.1586,0,0,0,0,0,-0.1869,-0.186,-0.1821,-0.1826,-0.1821,-0.1784,-0.1779,-0.1761,-0.1737,-0.1732,-0.1713,-0.1688,-0.1664,-0.1665,-0.164,-0.1657,-0.164,-0.167,-0.1679,-0.1686,-0.1675,-0.1667,-0.1674,-0.1601,-0.1601,-0.1601,0,0,-0.189,-0.1865,-0.186,-0.1837,-0.1819,-0.1812,-0.1781,-0.1786,-0.1783,-0.1733,-0.1742,-0.1721,-0.1673,-0.1678,-0.1682,-0.1665,-0.1708,-0.1688,-0.1695,-0.1679,-0.167,-0.1677,-0.1683,-0.1602,-0.1602,-0.1602,0,0,-0.1916,-0.1912,-0.1906,-0.1899,-0.1884,-0.1861,-0.1874,-0.1848,-0.1844,-0.1845,-0.1804,-0.1803,-0.1778,-0.1747,-0.1724,-0.1766,-0.1748,-0.177,-0.1812,-0.1806,-0.1812,-0.1816,-0.1854,-0.1861,-0.1779,-0.1779,-0.1779,0,-0.1948,-0.1925,-0.1909,-0.1906,-0.1902,-0.1889,-0.1891,-0.1884,-0.1867,-0.187,-0.1863,-0.1825,-0.18,-0.1784,-0.1794,-0.1785,-0.1792,-0.1783,-0.1818,-0.1821,-0.1825,-0.1861,-0.1868,-0.1784,-0.1783,-0.1783,-0.1782,0,-0.1947,-0.1948,-0.1953,-0.1933,-0.194,-0.1945,-0.1933,-0.1955,-0.1954,-0.1936,-0.1943,-0.1907,-0.188,-0.1883,-0.1848,-0.1864,-0.1868,-0.1829,-0.1797,-0.1839,-0.1875,-0.188,-0.1791,-0.1789,-0.1788,-0.1786,0,0,-0.1936,-0.1949,-0.1945,-0.195,-0.1954,-0.1954,-0.198,-0.1981,-0.1997,-0.1996,-0.2006,-0.1973,-0.1966,-0.1939,-0.1915,-0.1914,-0.1965,-0.1892,-0.1889,-0.1938,-0.1993,-0.1972,-0.1976,-0.1938,-0.1938,-0.1938,-0.2028,0,-0.1929,-0.1938,-0.1943,-0.1957,-0.1957,-0.1979,-0.2,-0.2015,-0.2026,-0.2044,-0.2023,-0.2016,-0.1983,-0.1984,-0.198,-0.1957,-0.1975,-0.1947,-0.1936,-0.1936,-0.1919,-0.1979,-0.1732,-0.1786,-0.2032,-0.2033,-0.2034,0,-0.1882,-0.1904,-0.1916,-0.1964,-0.1969,-0.1979,-0.202,-0.204,-0.207,-0.2087,-0.2091,-0.2076,-0.2077,-0.2039,-0.2036,-0.2025,-0.2017,-0.2005,-0.2007,-0.1945,-0.1922,-0.1773,-0.1786,-0.2042,-0.2041,-0.204,-0.204,0,-0.1826,-0.1868,-0.1882,-0.1892,-0.1948,-0.1967,-0.1998,-0.204,-0.2065,-0.2107,-0.2135,-0.2132,-0.2134,-0.2115,-0.2092,-0.2073,-0.2096,-0.2061,-0.2043,-0.2044,-0.1805,-0.1784,-0.206,-0.206,-0.206,-0.206,-0.206,0,-0.1776,-0.1782,-0.1857,-0.1856,-0.1894,-0.1941,-0.1972,-0.2021,-0.2076,-0.2111,-0.214,-0.217,-0.2149,-0.2158,-0.213,-0.2114,-0.2128,-0.2063,-0.2059,-0.184,-0.1822,-0.1998,-0.199,-0.2063,-0.2062,-0.2062,-0.2061,0,-0.1687,-0.1731,-0.1752,-0.183,-0.1853,-0.1874,-0.195,-0.1983,-0.2051,-0.2103,-0.2121,-0.2198,-0.2229,-0.2216,-0.2206,-0.2164,-0.2145,-0.2132,-0.1907,-0.1874,-0.2099,-0.2095,-0.2139,-0.2139,-0.2139,-0.2138,-0.2138,0,-0.1637,-0.1636,-0.1719,-0.1737,-0.1765,-0.181,-0.1849,-0.1944,-0.1986,-0.2117,-0.2143,-0.2213,-0.2263,-0.2271,-0.2161,-0.2125,-0.2173,-0.1913,-0.1814,-0.2113,-0.2104,-0.21,-0.2096,-0.1561,-0.1557,-0.1553,-0.155,0,-0.1541,-0.157,-0.1601,-0.1651,-0.1688,-0.1753,-0.1816,-0.1864,-0.1988,-0.2063,-0.2189,-0.2249,-0.2235,-0.2083,-0.202,-0.1957,-0.1897,-0.1837,-0.2175,-0.1588,-0.1577,-0.1567,-0.1579,-0.1515,-0.1518,-0.1521,-0.1523,-0.1524,-0.1455,-0.1467,-0.1504,-0.1541,-0.1607,-0.1688,-0.1702,-0.1818,-0.1913,-0.1972,-0.2117,-0.2095,-0.1963,-0.1754,-0.168,-0.1605,-0.1741,-0.1622,-0.1629,-0.1642,-0.1567,-0.1556,-0.148,-0.1483,-0.1486,-0.1488,-0.149,0,-0.1328,-0.1352,-0.1391,-0.1445,-0.149,-0.1556,-0.1663,-0.1665,-0.1762,-0.1806,-0.187,-0.1599,-0.1482,-0.1407,-0.1225,-0.1215,-0.1157,-0.1177,-0.1058,-0.1092,-0.1122,-0.1018,-0.0787,-0.0785,-0.0784,-0.0783,0,0,-0.1252,-0.124,-0.1275,-0.1295,-0.1342,-0.1371,-0.1412,-0.1462,-0.1476,-0.1446,-0.1366,-0.135,-0.1336,-0.1013,-0.0944,-0.0865,-0.0981,-0.0822,-0.1371,-0.1263,-0.1293,-0.135,-0.1225,0,0,0,0,0]},{"header":{"parameterUnit":"m.s-1","parameterCategory":2,"la1":30.2991,"la2":30.254,"lo1":-89.0895,"lo2":-89.0444,"dy":0.0017,"dx":0.0017,"nx":28,"ny":28,"refTime":"2025-07-02T21:00:00:Z","depth":"2","parameterNumber":3,"parameterNumberName":"V-component_of_CURRENTS"},"data":[0,0,0,0,0,0,0,0,0,0,0,0,0,0,0,0,0,0,0,0,0,0,0,0,0,0,0,0,0,0,0,0,0,0,0,0,0,0,0,0,0,0,0,0,0,0,0,0,0,0,0,0,0,0,0,0,0,0,0.0144,0.0144,0,0.0162,0.0162,0.0162,0.0171,0.0171,0.0171,0.0171,0.0207,0.0208,0.021,0,0,0,0,0,0,0,0,0,0,0,0,0,0.0177,0.0176,0.0144,0.0144,0.0144,0.0161,0.0162,0.0162,0.0171,0.0171,0.0171,0.0171,0.0207,0.0208,0.021,0,0,0,0,0,0,0,0,0,0,0,0,0,0.0177,0.0176,0.0144,0.0149,0.015,0.0161,0.0162,0.0163,0.0172,0.0171,0.0171,0.0171,0.0206,0.0208,0.021,0.0227,0,0,0.0215,0.0216,0,0,0,0,0,0,0,0,0.0177,0.0176,0.0148,0.0149,0.0149,0.0162,0.0187,0.0184,0.0172,0.0166,0.0171,0.017,0.0193,0.0195,0.0203,0.0229,0.023,0.0215,0.0216,0.0217,0.0218,0,0,0,0,0,0,0,0.0177,0.0176,0.0154,0.0148,0.0149,0.017,0.0169,0.0187,0.0183,0.0166,0.0166,0.0164,0.0193,0.0201,0.0204,0.0231,0.0215,0.0217,0.0218,0.0219,0.0256,0.0256,0,0,0,0,0,0,0.0167,0.0175,0.0153,0.0154,0.016,0.0169,0.0169,0.016,0.0182,0.0185,0.0165,0.0165,0.0198,0.0201,0.0205,0.0195,0.0217,0.0219,0.022,0.0256,0.0256,0.0256,0,0,0,0,0,0,0.0168,0.0165,0.0152,0.0164,0.0163,0.0168,0.0159,0.0161,0.0157,0.018,0.0184,0.0158,0.0198,0.0202,0.0207,0.0197,0.022,0.0221,0.0256,0.0256,0.0256,0.0195,0,0,0,0,0,0,0.0168,0.0165,0.0156,0.0163,0.0162,0.0151,0.0159,0.0161,0.0156,0.0156,0.0176,0.018,0.0198,0.0205,0.0209,0.02,0.0223,0.0256,0.0256,0.0256,0.0197,0.0193,0.0189,0,0,0,0,0,0.0169,0.0155,0.0155,0.0153,0.0149,0.015,0.0152,0.0157,0.0156,0.0153,0.0163,0.0179,0.0208,0.0206,0.0211,0.0203,0.0256,0.0256,0.0256,0.0199,0.0194,0.019,0,0,0,0,0,0,0.0161,0.0155,0.0155,0.0138,0.0141,0.0151,0.0143,0.015,0.0156,0.0151,0.0175,0.0179,0.0181,0.0203,0.02,0.0215,0.0236,0.0237,0.0191,0.0186,0.0183,0.0187,0.0224,0,0,0,0,0,0.0156,0.014,0.0145,0.0128,0.0126,0.0133,0.0133,0.0137,0.0143,0.0144,0.0156,0.0172,0.0188,0.0194,0.0211,0.0217,0.0236,0.0218,0.0214,0.021,0.0219,0.024,0.0238,0.0256,0.0256,0.0256,0,0,0.0145,0.0139,0.013,0.0125,0.0123,0.0118,0.0132,0.0123,0.0124,0.0148,0.0143,0.0156,0.0186,0.019,0.0194,0.0205,0.021,0.021,0.0207,0.0218,0.0239,0.0238,0.0236,0.0255,0.0255,0.0256,0,0,0.0112,0.0111,0.0088,0.0093,0.0088,0.0097,0.0091,0.0095,0.0101,0.0102,0.0118,0.0128,0.0145,0.0167,0.0182,0.0171,0.0187,0.0169,0.0153,0.0172,0.0171,0.017,0.0164,0.0163,0.0168,0.0168,0.0168,0,0.0097,0.0073,0.0082,0.0068,0.0068,0.0083,0.0069,0.0082,0.0087,0.0095,0.0092,0.0122,0.0141,0.0162,0.0152,0.0163,0.0163,0.0163,0.0166,0.0165,0.0166,0.0161,0.016,0.0165,0.0166,0.0166,0.0166,0,0.0056,0.004,0.0026,0.0014,0.0021,0.0009,0.003,0.0033,0.0038,0.0055,0.0068,0.0092,0.0112,0.0116,0.0128,0.0138,0.0133,0.0153,0.0173,0.016,0.0155,0.0156,0.0161,0.0162,0.0163,0.0164,0,0,0.0008,-0.0004,-0.0009,-0.0021,-0.0007,-0.0011,-0.0002,0.0012,0.0016,0.003,0.0038,0.0064,0.0074,0.0093,0.0109,0.0127,0.0114,0.013,0.0133,0.0117,0.0129,0.0221,0.0231,0.0125,0.0125,0.0126,0.0115,0,-0.0033,-0.0075,-0.0058,-0.0085,-0.0102,-0.0067,-0.006,-0.0037,-0.0013,-0.0,0.0041,0.0047,0.0068,0.006,0.0085,0.0111,0.0118,0.0114,0.0152,0.0154,0.0232,0.0237,0.0208,0.0206,0.0116,0.0116,0.0116,0,-0.0075,-0.01,-0.0137,-0.0139,-0.0142,-0.0145,-0.0125,-0.0116,-0.0071,-0.0055,-0.0024,0.0004,0.0031,0.0047,0.0092,0.0081,0.0097,0.012,0.0121,0.0236,0.025,0.0212,0.0211,0.0118,0.0118,0.0118,0.0118,0,-0.012,-0.0148,-0.0183,-0.0183,-0.0182,-0.0185,-0.0182,-0.014,-0.0133,-0.0097,-0.0094,-0.0039,-0.0035,0.0013,0.0074,0.0065,0.0129,0.0127,0.0225,0.0229,0.0233,0.024,0.0157,0.0157,0.0157,0.0157,0.0157,0,-0.0163,-0.0187,-0.0213,-0.0231,-0.0264,-0.024,-0.0255,-0.0233,-0.0206,-0.0201,-0.014,-0.0117,-0.0046,0.001,0.0062,0.0162,0.0121,0.0231,0.0246,0.0211,0.0215,0.0171,0.0173,0.0156,0.0156,0.0156,0.0157,0,-0.0191,-0.0213,-0.0252,-0.0276,-0.0288,-0.0308,-0.0317,-0.0324,-0.0294,-0.0286,-0.0286,-0.0197,-0.0111,-0.0017,0.0066,0.0145,0.0233,0.0272,0.0223,0.0236,0.0308,0.0307,0.0366,0.0369,0.0372,0.0374,0.0377,0,-0.0206,-0.0235,-0.0288,-0.0323,-0.0336,-0.037,-0.0393,-0.0377,-0.0379,-0.0323,-0.0322,-0.0232,-0.0127,0.0058,0.0208,0.034,0.0297,0.0371,0.0381,0.0328,0.0336,0.033,0.0324,0.0327,0.0328,0.0329,0.033,0,-0.0222,-0.0244,-0.0276,-0.0359,-0.0403,-0.0455,-0.0485,-0.0497,-0.0472,-0.0439,-0.0364,-0.0267,-0.0048,0.0132,0.0331,0.0404,0.036,0.0405,0.0353,0.0311,0.03,0.0305,0.0299,0.0341,0.034,0.0339,0.0339,0.0338,-0.0223,-0.0253,-0.0311,-0.0383,-0.0449,-0.0528,-0.0579,-0.0581,-0.0576,-0.0517,-0.0391,-0.0231,-0.0053,0.0268,0.0395,0.0504,0.0514,0.0492,0.0483,0.0474,0.0504,0.0504,0.0585,0.0585,0.0585,0.0586,0.0586,0,-0.0226,-0.0269,-0.0336,-0.0437,-0.0526,-0.0563,-0.0633,-0.0655,-0.0651,-0.0538,-0.0422,-0.0193,0.0056,0.0224,0.0438,0.0582,0.0537,0.0557,0.0446,0.0437,0.0428,0.0451,0.052,0.052,0.0519,0.0519,0,0,-0.0234,-0.029,-0.0333,-0.0483,-0.0571,-0.0702,-0.0757,-0.0751,-0.0691,-0.0576,-0.0446,-0.0204,0.0046,0.0156,0.032,0.0411,0.0375,0.0416,0.0459,0.0299,0.0288,0.0392,0.0421,0,0,0,0,0]}],[{"header":{"parameterUnit":"m.s-1","parameterCategory":2,"la1":30.2991,"la2":30.254,"lo1":-89.0895,"lo2":-89.0444,"dy":0.0017,"dx":0.0017,"nx":28,"ny":28,"refTime":"2025-07-02T21:00:00:Z","depth":"4","parameterNumber":2,"parameterNumberName":"U-component_of_CURRENTS"},"data":[0,0,0,0,0,0,0,0,0,0,0,0,0,0,0,0,0,0,0,0,0,0,0,0,0,0,0,0,0,0,0,0,0,0,0,0,0,0,0,0,0,0,0,0,0,0,0,0,0,0,0,0,0,0,0,0,0,0,-0.0782,-0.0782,0,-0.0806,-0.0807,-0.0807,-0.0876,-0.0877,-0.0878,-0.088,-0.1031,-0.1034,-0.1037,0,0,0,0,0,0,0,0,0,0,0,0,0,-0.0733,-0.0734,-0.0782,-0.0782,-0.0782,-0.0806,-0.0807,-0.0807,-0.0875,-0.0877,-0.0879,-0.088,-0.1031,-0.1034,-0.1037,0,0,0,0,0,0,0,0,0,0,0,0,0,-0.0756,-0.0735,-0.0782,-0.0819,-0.0823,-0.0806,-0.0807,-0.0807,-0.0875,-0.0877,-0.0879,-0.0881,-0.103,-0.1033,-0.1037,-0.1018,0,0,-0.105,-0.1051,0,0,0,0,0,0,0,0,-0.0755,-0.0758,-0.0813,-0.0816,-0.082,-0.084,-0.0845,-0.0884,-0.0874,-0.0855,-0.088,-0.0882,-0.0977,-0.0986,-0.0984,-0.1025,-0.1032,-0.105,-0.1052,-0.1054,-0.1055,0,0,0,0,0,0,0,-0.0753,-0.0757,-0.0792,-0.0813,-0.0818,-0.0814,-0.082,-0.0852,-0.0906,-0.0857,-0.0862,-0.0864,-0.0981,-0.098,-0.0989,-0.1034,-0.105,-0.1053,-0.1056,-0.1057,-0.124,-0.1242,0,0,0,0,0,0,-0.075,-0.0755,-0.0791,-0.0792,-0.0792,-0.0813,-0.082,-0.0832,-0.0903,-0.0915,-0.0862,-0.0867,-0.0972,-0.0984,-0.0994,-0.1162,-0.1054,-0.1058,-0.106,-0.1237,-0.124,-0.1243,0,0,0,0,0,0,-0.0749,-0.0754,-0.079,-0.0774,-0.0778,-0.0812,-0.0824,-0.0831,-0.0864,-0.0905,-0.0921,-0.0892,-0.0974,-0.0989,-0.1052,-0.1162,-0.106,-0.1063,-0.1234,-0.1238,-0.1241,-0.1379,0,0,0,0,0,0,-0.0748,-0.0753,-0.0762,-0.0774,-0.0779,-0.0806,-0.0822,-0.083,-0.0859,-0.0867,-0.0935,-0.095,-0.0977,-0.1045,-0.1056,-0.1165,-0.1066,-0.1231,-0.1236,-0.124,-0.1371,-0.1387,-0.14,0,0,0,0,0,-0.0746,-0.075,-0.0763,-0.0767,-0.079,-0.0806,-0.0809,-0.0839,-0.0859,-0.0877,-0.0923,-0.0949,-0.1084,-0.1049,-0.1061,-0.1175,-0.1229,-0.1235,-0.124,-0.1365,-0.1384,-0.14,0,0,0,0,0,0,-0.0742,-0.0757,-0.0772,-0.0784,-0.0806,-0.0819,-0.0833,-0.085,-0.0895,-0.0914,-0.0956,-0.0974,-0.1085,-0.1084,-0.1045,-0.1237,-0.117,-0.1178,-0.1262,-0.1279,-0.1294,-0.1338,-0.107,0,0,0,0,0,-0.074,-0.0744,-0.0768,-0.0778,-0.0794,-0.0817,-0.0828,-0.085,-0.0885,-0.0907,-0.0978,-0.1041,-0.1107,-0.1153,-0.1206,-0.1286,-0.1238,-0.1371,-0.1386,-0.1398,-0.1441,-0.1426,-0.1443,-0.1261,-0.1261,-0.1261,0,0,-0.075,-0.0748,-0.0759,-0.0776,-0.0797,-0.0819,-0.0832,-0.0859,-0.0897,-0.0917,-0.1023,-0.1092,-0.1134,-0.1247,-0.1299,-0.1269,-0.1413,-0.1405,-0.1416,-0.1452,-0.1433,-0.1451,-0.1467,-0.1264,-0.1264,-0.1263,0,0,-0.0754,-0.0767,-0.0778,-0.0792,-0.0817,-0.0828,-0.0844,-0.0899,-0.0952,-0.1033,-0.1082,-0.1202,-0.1295,-0.1373,-0.141,-0.1521,-0.1486,-0.1562,-0.1686,-0.1671,-0.1686,-0.1698,-0.1607,-0.1611,-0.1574,-0.1575,-0.1575,0,-0.076,-0.0759,-0.0785,-0.0796,-0.0809,-0.0839,-0.0862,-0.0907,-0.0989,-0.105,-0.1088,-0.1319,-0.1358,-0.1511,-0.1583,-0.1563,-0.1521,-0.1619,-0.169,-0.1702,-0.1713,-0.1616,-0.1619,-0.1582,-0.1581,-0.158,-0.158,0,-0.0775,-0.0772,-0.0778,-0.08,-0.0838,-0.0842,-0.0914,-0.0993,-0.1072,-0.113,-0.1334,-0.1443,-0.1602,-0.1644,-0.1661,-0.1806,-0.1735,-0.1702,-0.1646,-0.1739,-0.1631,-0.1631,-0.1592,-0.159,-0.1588,-0.1586,0,0,-0.0767,-0.0779,-0.0778,-0.0805,-0.0826,-0.0877,-0.0952,-0.1035,-0.1119,-0.1287,-0.1453,-0.1636,-0.1769,-0.1824,-0.1911,-0.1934,-0.1963,-0.1888,-0.1884,-0.1798,-0.1886,-0.1706,-0.1686,-0.195,-0.1953,-0.1955,-0.1759,0,-0.0751,-0.0761,-0.0776,-0.0823,-0.0845,-0.0908,-0.0962,-0.1067,-0.1192,-0.1369,-0.1555,-0.1737,-0.1811,-0.1956,-0.2012,-0.1968,-0.1981,-0.2017,-0.1811,-0.1804,-0.1634,-0.1688,-0.1962,-0.1758,-0.1758,-0.1758,-0.1758,0,-0.0748,-0.0748,-0.0776,-0.0834,-0.0857,-0.0908,-0.1058,-0.1137,-0.1334,-0.1486,-0.1749,-0.1854,-0.2041,-0.2076,-0.2087,-0.211,-0.2052,-0.199,-0.1978,-0.1778,-0.1627,-0.1658,-0.1756,-0.1756,-0.1757,-0.1757,-0.1757,0,-0.0734,-0.0761,-0.0782,-0.0799,-0.0865,-0.0943,-0.1024,-0.1179,-0.1289,-0.1623,-0.173,-0.1964,-0.2075,-0.2096,-0.1999,-0.2059,-0.1901,-0.1929,-0.1705,-0.1686,-0.1844,-0.1832,-0.1935,-0.1935,-0.1935,-0.1936,-0.1936,0,-0.068,-0.071,-0.0796,-0.0808,-0.0862,-0.0982,-0.1101,-0.1247,-0.1483,-0.1542,-0.1839,-0.189,-0.2082,-0.1996,-0.198,-0.1797,-0.1869,-0.1741,-0.1648,-0.1895,-0.1893,-0.1838,-0.1829,-0.1928,-0.193,-0.1931,-0.1933,0,-0.0649,-0.0673,-0.0711,-0.0804,-0.0845,-0.0931,-0.1118,-0.1198,-0.1452,-0.157,-0.1678,-0.1827,-0.1714,-0.1763,-0.1685,-0.1675,-0.1561,-0.1472,-0.1658,-0.1574,-0.1374,-0.1375,-0.1267,-0.126,-0.1253,-0.1248,-0.1244,0,-0.0629,-0.0638,-0.0709,-0.0729,-0.0772,-0.0913,-0.094,-0.1199,-0.1257,-0.1401,-0.1381,-0.1392,-0.1433,-0.1205,-0.1288,-0.1254,-0.1261,-0.1221,-0.1446,-0.1398,-0.1318,-0.1329,-0.1338,-0.1234,-0.1232,-0.123,-0.1229,0,-0.0578,-0.0599,-0.0622,-0.0642,-0.0686,-0.0728,-0.0803,-0.0856,-0.1034,-0.1209,-0.1116,-0.1139,-0.0994,-0.102,-0.1,-0.097,-0.1288,-0.1157,-0.1175,-0.1387,-0.1356,-0.1285,-0.1302,-0.1207,-0.121,-0.1212,-0.1213,0,-0.0545,-0.0529,-0.054,-0.0569,-0.0569,-0.053,-0.0614,-0.0619,-0.0718,-0.0878,-0.0738,-0.0789,-0.0843,-0.0846,-0.0765,-0.0798,-0.0872,-0.094,-0.0971,-0.0996,-0.102,-0.0947,-0.0599,0,0,0,0,0,-0.0505,-0.0473,-0.0477,-0.0452,-0.0433,-0.0435,-0.0472,-0.0553,-0.063,-0.0528,-0.0703,-0.057,-0.0597,-0.0604,-0.0602,-0.067,-0.0874,-0.0666,-0.0966,-0.1085,-0.1111,-0.1175,0,0,0,0,0,0,-0.0468,-0.045,-0.044,-0.0335,-0.0305,-0.0255,-0.0273,-0.0337,-0.031,-0.0414,-0.0415,-0.0522,-0.0535,-0.0576,-0.0576,-0.0591,-0.0773,-0.0715,-0.0714,-0.1071,-0.1094,-0.1114,-0.119,0,0,0,0,0]},{"header":{"parameterUnit":"m.s-1","parameterCategory":2,"la1":30.2991,"la2":30.254,"lo1":-89.0895,"lo2":-89.0444,"dy":0.0017,"dx":0.0017,"nx":28,"ny":28,"refTime":"2025-07-02T21:00:00:Z","depth":"4","parameterNumber":3,"parameterNumberName":"V-component_of_CURRENTS"},"data":[0,0,0,0,0,0,0,0,0,0,0,0,0,0,0,0,0,0,0,0,0,0,0,0,0,0,0,0,0,0,0,0,0,0,0,0,0,0,0,0,0,0,0,0,0,0,0,0,0,0,0,0,0,0,0,0,0,0,-0.0153,-0.0153,0,-0.0188,-0.0189,-0.0189,-0.0173,-0.0172,-0.0171,-0.017,-0.0157,-0.0158,-0.0158,0,0,0,0,0,0,0,0,0,0,0,0,0,-0.0104,-0.0105,-0.0153,-0.0153,-0.0153,-0.0188,-0.0189,-0.0189,-0.0173,-0.0172,-0.0171,-0.017,-0.0157,-0.0158,-0.0158,0,0,0,0,0,0,0,0,0,0,0,0,0,-0.0132,-0.0105,-0.0152,-0.0148,-0.0148,-0.0188,-0.0189,-0.019,-0.0174,-0.0172,-0.017,-0.0169,-0.0157,-0.0158,-0.0158,-0.0195,0,0,-0.0161,-0.0162,0,0,0,0,0,0,0,0,-0.013,-0.0134,-0.0149,-0.0149,-0.0148,-0.0173,-0.0167,-0.0188,-0.0174,-0.0165,-0.017,-0.0168,-0.0158,-0.0159,-0.0172,-0.0194,-0.0194,-0.0161,-0.0162,-0.0162,-0.0163,0,0,0,0,0,0,0,-0.0128,-0.0133,-0.0168,-0.0149,-0.0149,-0.0156,-0.0158,-0.0171,-0.017,-0.0166,-0.0165,-0.0167,-0.0158,-0.0171,-0.0171,-0.0194,-0.0161,-0.0162,-0.0163,-0.0163,-0.023,-0.0232,0,0,0,0,0,0,-0.0121,-0.0131,-0.0167,-0.0169,-0.0134,-0.0158,-0.016,-0.0168,-0.0171,-0.017,-0.0168,-0.0166,-0.017,-0.017,-0.0171,-0.0192,-0.0162,-0.0163,-0.0164,-0.0229,-0.0231,-0.0232,0,0,0,0,0,0,-0.012,-0.0124,-0.0166,-0.0149,-0.0154,-0.016,-0.0169,-0.017,-0.018,-0.0173,-0.0171,-0.0177,-0.0169,-0.0169,-0.0202,-0.0192,-0.0164,-0.0164,-0.0228,-0.023,-0.0231,-0.0249,0,0,0,0,0,0,-0.0119,-0.0124,-0.0136,-0.0149,-0.0155,-0.0192,-0.017,-0.0171,-0.0183,-0.0181,-0.018,-0.0177,-0.0168,-0.0201,-0.0203,-0.0193,-0.0165,-0.0226,-0.0229,-0.0231,-0.0247,-0.0251,-0.0255,0,0,0,0,0,-0.0117,-0.0134,-0.0137,-0.0141,-0.0169,-0.0193,-0.0198,-0.0197,-0.0185,-0.0199,-0.0209,-0.0177,-0.0215,-0.0204,-0.0205,-0.0195,-0.0225,-0.0228,-0.0231,-0.0245,-0.025,-0.0255,0,0,0,0,0,0,-0.0115,-0.0134,-0.0137,-0.0158,-0.0177,-0.019,-0.0201,-0.0203,-0.0224,-0.022,-0.021,-0.021,-0.0231,-0.0225,-0.0212,-0.0224,-0.0208,-0.0212,-0.0219,-0.0224,-0.0228,-0.0167,-0.0166,0,0,0,0,0,-0.0123,-0.0141,-0.0159,-0.0176,-0.0185,-0.0196,-0.0208,-0.021,-0.0225,-0.0232,-0.0235,-0.0238,-0.0248,-0.0245,-0.0259,-0.0274,-0.0226,-0.0266,-0.027,-0.0273,-0.0227,-0.0128,-0.0117,-0.0241,-0.0241,-0.0241,0,0,-0.0127,-0.0139,-0.015,-0.0178,-0.0189,-0.0225,-0.02,-0.0218,-0.0247,-0.0228,-0.0267,-0.0262,-0.0261,-0.0278,-0.0283,-0.0266,-0.0235,-0.0276,-0.0279,-0.023,-0.0129,-0.0116,-0.0105,-0.0243,-0.0243,-0.0243,0,0,-0.0147,-0.0155,-0.0181,-0.0205,-0.0227,-0.0241,-0.0249,-0.027,-0.0273,-0.0315,-0.0301,-0.0303,-0.0324,-0.0315,-0.0313,-0.0353,-0.0269,-0.034,-0.0295,-0.0202,-0.0188,-0.0176,-0.0185,-0.0172,-0.0329,-0.0329,-0.0329,0,-0.0154,-0.0189,-0.0192,-0.023,-0.0258,-0.0253,-0.0297,-0.0308,-0.0339,-0.0346,-0.033,-0.0335,-0.0343,-0.0335,-0.0325,-0.0359,-0.0293,-0.0276,-0.02,-0.0186,-0.0173,-0.0184,-0.017,-0.033,-0.033,-0.033,-0.0329,0,-0.0196,-0.0234,-0.0249,-0.0301,-0.0334,-0.0363,-0.0386,-0.0406,-0.0406,-0.0413,-0.0405,-0.0391,-0.036,-0.0377,-0.035,-0.0264,-0.0251,-0.0224,-0.0174,-0.016,-0.0176,-0.0161,-0.0331,-0.0331,-0.0331,-0.033,0,0,-0.0196,-0.0265,-0.0275,-0.0318,-0.0373,-0.0406,-0.045,-0.0486,-0.0506,-0.0485,-0.0472,-0.0456,-0.0375,-0.0361,-0.0315,-0.0227,-0.0123,-0.0143,-0.0137,-0.0129,0.0064,-0.0002,0.0007,-0.0025,-0.0021,-0.0018,-0.0015,0,-0.0231,-0.0304,-0.0341,-0.0432,-0.0475,-0.0503,-0.0551,-0.0582,-0.0582,-0.0568,-0.0493,-0.0451,-0.0387,-0.0319,-0.0219,-0.013,-0.0065,-0.0128,0.0032,0.0035,-0.0003,0.003,-0.0004,-0.0004,-0.0,0.0002,0.0004,0,-0.0271,-0.0315,-0.0398,-0.0499,-0.0522,-0.0581,-0.0647,-0.0682,-0.0662,-0.0632,-0.0532,-0.0444,-0.0296,-0.0232,-0.0034,-0.0043,0.0038,0.0085,0.0087,0.0067,0.0002,-0.0001,0.0032,0.003,0.0028,0.0026,0.0024,0,-0.0271,-0.0369,-0.0434,-0.0469,-0.0571,-0.0618,-0.0666,-0.0702,-0.0719,-0.0614,-0.0574,-0.0401,-0.0285,-0.0107,0.0009,0.0059,0.0179,0.0229,0.0205,0.0195,0.0262,0.025,0.037,0.037,0.037,0.037,0.037,0,-0.0306,-0.0366,-0.0438,-0.0481,-0.057,-0.0631,-0.0709,-0.072,-0.0707,-0.0702,-0.0552,-0.0475,-0.021,-0.0118,0.0011,0.0129,0.0181,0.0237,0.0228,0.0233,0.0219,0.0267,0.0255,0.037,0.037,0.037,0.037,0,-0.0319,-0.036,-0.0442,-0.0539,-0.0577,-0.0635,-0.0735,-0.0769,-0.0742,-0.0707,-0.0631,-0.0481,-0.031,-0.0195,0.002,0.0096,0.0207,0.0207,0.011,0.0089,0.0163,0.015,0.0275,0.0274,0.0272,0.0271,0.027,0,-0.0337,-0.0372,-0.047,-0.0522,-0.0577,-0.0664,-0.0723,-0.0755,-0.0755,-0.0721,-0.0668,-0.0526,-0.0409,-0.0224,-0.0067,0.0095,0.012,0.0148,0.0291,0.0193,0.0172,0.016,0.0148,0.0268,0.0268,0.0268,0.0268,0,-0.0366,-0.0388,-0.0444,-0.0527,-0.0603,-0.0684,-0.0742,-0.0739,-0.0743,-0.0741,-0.0647,-0.0524,-0.0401,-0.0202,-0.0139,-0.0008,0.0149,0.0138,0.0145,0.0281,0.0186,0.0164,0.0154,0.0263,0.0264,0.0264,0.0264,0,-0.0375,-0.0404,-0.0454,-0.0532,-0.0613,-0.0653,-0.0705,-0.0702,-0.0706,-0.0653,-0.0636,-0.0517,-0.0438,-0.0265,-0.0194,-0.0084,0.0024,0.0104,0.0116,0.0122,0.0089,-0.0053,-0.0028,0,0,0,0,0,-0.0381,-0.0401,-0.0465,-0.0528,-0.0597,-0.0638,-0.0692,-0.072,-0.0722,-0.0651,-0.0639,-0.0525,-0.036,-0.0293,-0.0175,-0.0169,0.0043,-0.0027,0.0141,0.0239,0.0244,0.023,0,0,0,0,0,0,-0.039,-0.0428,-0.0443,-0.0489,-0.0529,-0.0591,-0.0621,-0.0635,-0.0583,-0.0585,-0.0494,-0.0486,-0.0323,-0.042,-0.0167,-0.0139,-0.0012,0.0034,0.0037,0.0236,0.0241,0.0245,0.0232,0,0,0,0,0]}]]